| time (UTC) | temp F | wind direction | speed MPH | gust MPH | rain 1hr in | rain 24hr in | rain mn in | humidity % | barometer mb |
| 20260504050003 | 59 | 263 | 3.0 | 8.0 | 0.00 | 0.00 | 0.00 | 77 | 1015.6 |
| 20260504045003 | 59 | 257 | 2.0 | 7.0 | 0.00 | 0.00 | 0.00 | 77 | 1015.5 |
| 20260504044003 | 59 | 251 | 2.0 | 5.0 | 0.00 | 0.00 | 0.00 | 76 | 1015.4 |
| 20260504043003 | 59 | 249 | 4.0 | 6.0 | 0.00 | 0.00 | 0.00 | 76 | 1015.0 |
| 20260504042003 | 59 | 256 | 3.0 | 9.0 | 0.00 | 0.00 | 0.00 | 75 | 1015.1 |
| 20260504041003 | 59 | 257 | 3.0 | 9.0 | 0.00 | 0.00 | 0.00 | 75 | 1014.9 |
| 20260504040024 | 60 | 243 | 3.0 | 6.0 | 0.00 | 0.00 | 0.00 | 74 | 1014.6 |
| 20260504035003 | 60 | 239 | 3.0 | 7.0 | 0.00 | 0.00 | 0.00 | 74 | 1014.5 |
| 20260504034024 | 60 | 247 | 3.0 | 7.0 | 0.00 | 0.00 | 0.00 | 75 | 1014.5 |
| 20260504033003 | 60 | 236 | 4.0 | 8.0 | 0.00 | 0.00 | 0.00 | 74 | 1014.4 |
| 20260504030004 | 60 | 255 | 4.0 | 8.0 | 0.00 | 0.00 | 0.00 | 72 | 1014.1 |
| 20260504025025 | 60 | 261 | 4.0 | 8.0 | 0.00 | 0.00 | 0.00 | 73 | 1013.9 |
| 20260504024004 | 61 | 257 | 3.0 | 8.0 | 0.00 | 0.00 | 0.00 | 73 | 1014.2 |
| 20260504023025 | 61 | 305 | 2.0 | 7.0 | 0.00 | 0.00 | 0.00 | 73 | 1014.2 |
| 20260504022004 | 61 | 267 | 3.0 | 8.0 | 0.00 | 0.00 | 0.00 | 73 | 1014.2 |
| 20260504021004 | 61 | 257 | 5.0 | 9.0 | 0.00 | 0.00 | 0.00 | 73 | 1014.0 |
| 20260504020025 | 61 | 253 | 4.0 | 10.0 | 0.00 | 0.00 | 0.00 | 72 | 1014.0 |
| 20260504015004 | 62 | 252 | 4.0 | 11.0 | 0.00 | 0.00 | 0.00 | 72 | 1014.2 |
| 20260504014004 | 62 | 279 | 5.0 | 11.0 | 0.00 | 0.00 | 0.00 | 71 | 1013.9 |
| 20260504012025 | 62 | 253 | 5.0 | 13.0 | 0.00 | 0.00 | 0.00 | 70 | 1013.9 |
| 20260504011025 | 63 | 251 | 6.0 | 12.0 | 0.00 | 0.00 | 0.00 | 69 | 1013.8 |
| 20260504010025 | 63 | 263 | 6.0 | 14.0 | 0.00 | 0.00 | 0.00 | 67 | 1013.9 |
| 20260504005004 | 64 | 246 | 5.0 | 13.0 | 0.00 | 0.00 | 0.00 | 64 | 1013.7 |
| 20260504004004 | 64 | 247 | 5.0 | 13.0 | 0.00 | 0.00 | 0.00 | 63 | 1013.5 |
| 20260504003004 | 64 | 245 | 5.0 | 14.0 | 0.00 | 0.00 | 0.00 | 61 | 1013.5 |
| 20260504002004 | 65 | 233 | 4.0 | 14.0 | 0.00 | 0.00 | 0.00 | 60 | 1013.5 |
| 20260504001004 | 66 | 233 | 4.0 | 12.0 | 0.00 | 0.00 | 0.00 | 59 | 1013.4 |
| 20260504000004 | 66 | 231 | 4.0 | 10.0 | 0.00 | 0.00 | 0.00 | 58 | 1013.4 |
| 20260503235004 | 67 | 244 | 4.0 | 10.0 | 0.00 | 0.00 | 0.00 | 58 | 1013.2 |
| 20260503234004 | 67 | 239 | 4.0 | 10.0 | 0.00 | 0.00 | 0.00 | 58 | 1013.2 |
| 20260503233004 | 66 | 248 | 4.0 | 10.0 | 0.00 | 0.00 | 0.00 | 59 | 1013.0 |
| 20260503232004 | 67 | 227 | 4.0 | 10.0 | 0.00 | 0.00 | 0.00 | 59 | 1013.3 |
| 20260503231004 | 67 | 230 | 4.0 | 10.0 | 0.00 | 0.00 | 0.00 | 60 | 1013.2 |
| 20260503230004 | 66 | 248 | 4.0 | 9.0 | 0.00 | 0.00 | 0.00 | 60 | 1013.4 |
| 20260503225004 | 67 | 272 | 3.0 | 10.0 | 0.00 | 0.00 | 0.00 | 60 | 1013.4 |
| 20260503224004 | 66 | 259 | 4.0 | 10.0 | 0.00 | 0.00 | 0.00 | 58 | 1013.6 |
| 20260503223004 | 66 | 252 | 4.0 | 9.0 | 0.00 | 0.00 | 0.00 | 59 | 1013.7 |
| 20260503222004 | 67 | 232 | 4.0 | 8.0 | 0.00 | 0.00 | 0.00 | 59 | 1014.0 |
| 20260503221004 | 66 | 227 | 3.0 | 7.0 | 0.00 | 0.00 | 0.00 | 58 | 1014.1 |
| 20260503220004 | 66 | 250 | 3.0 | 9.0 | 0.00 | 0.00 | 0.00 | 58 | 1014.1 |
| 20260503215025 | 66 | 256 | 3.0 | 8.0 | 0.00 | 0.00 | 0.00 | 58 | 1014.2 |
| 20260503214004 | 66 | 262 | 4.0 | 8.0 | 0.00 | 0.00 | 0.00 | 58 | 1014.3 |
| 20260503213004 | 66 | 246 | 5.0 | 13.0 | 0.00 | 0.00 | 0.00 | 58 | 1014.4 |
| 20260503212025 | 66 | 255 | 3.0 | 10.0 | 0.00 | 0.00 | 0.00 | 59 | 1014.4 |
| 20260503211004 | 65 | 240 | 3.0 | 9.0 | 0.00 | 0.00 | 0.00 | 60 | 1014.4 |
| 20260503210004 | 65 | 293 | 2.0 | 9.0 | 0.00 | 0.00 | 0.00 | 60 | 1014.5 |
| 20260503205004 | 65 | 305 | 3.0 | 5.0 | 0.00 | 0.00 | 0.00 | 60 | 1014.6 |
| 20260503204004 | 64 | 241 | 3.0 | 9.0 | 0.00 | 0.00 | 0.00 | 60 | 1014.6 |
| 20260503202004 | 65 | 292 | 3.0 | 6.0 | 0.00 | 0.00 | 0.00 | 63 | 1014.6 |
| 20260503201004 | 64 | 273 | 3.0 | 11.0 | 0.00 | 0.00 | 0.00 | 64 | 1014.6 |
| 20260503200025 | 64 | 262 | 3.0 | 7.0 | 0.00 | 0.00 | 0.00 | 65 | 1014.8 |
| 20260503195004 | 63 | 264 | 4.0 | 8.0 | 0.00 | 0.00 | 0.00 | 65 | 1014.9 |
| 20260503194003 | 63 | 252 | 4.0 | 9.0 | 0.00 | 0.00 | 0.00 | 67 | 1015.0 |
| 20260503193004 | 63 | 240 | 4.0 | 10.0 | 0.00 | 0.00 | 0.00 | 67 | 1015.1 |
| 20260503192004 | 64 | 262 | 5.0 | 10.0 | 0.00 | 0.00 | 0.00 | 67 | 1015.0 |
| 20260503191025 | 64 | 250 | 4.0 | 12.0 | 0.00 | 0.00 | 0.00 | 65 | 1014.9 |
| 20260503190004 | 65 | 208 | 3.0 | 6.0 | 0.00 | 0.00 | 0.00 | 66 | 1015.0 |
| 20260503185004 | 64 | 222 | 4.0 | 11.0 | 0.00 | 0.00 | 0.00 | 67 | 1015.0 |
| 20260503183003 | 64 | 231 | 4.0 | 9.0 | 0.00 | 0.00 | 0.00 | 68 | 1015.0 |
| 20260503182004 | 65 | 207 | 3.0 | 7.0 | 0.00 | 0.00 | 0.00 | 66 | 1015.0 |
| 20260503181004 | 65 | 236 | 1.0 | 6.0 | 0.00 | 0.00 | 0.00 | 66 | 1015.1 |
| 20260503180004 | 65 | 0 | 0.0 | 3.0 | 0.00 | 0.00 | 0.00 | 65 | 1015.1 |
| 20260503175004 | 64 | 0 | 0.0 | 0.0 | 0.00 | 0.00 | 0.00 | 65 | 1015.0 |
| 20260503174003 | 64 | 0 | 0.0 | 0.0 | 0.00 | 0.00 | 0.00 | 66 | 1015.0 |
| 20260503173004 | 64 | 0 | 0.0 | 0.0 | 0.00 | 0.00 | 0.00 | 67 | 1015.0 |
| 20260503172003 | 64 | 270 | 1.0 | 1.0 | 0.00 | 0.00 | 0.00 | 66 | 1015.0 |
| 20260503171003 | 63 | 270 | 2.0 | 4.0 | 0.00 | 0.00 | 0.00 | 68 | 1015.0 |
| 20260503131003 | 58 | 0 | 0.0 | 2.0 | 0.00 | 0.00 | 0.00 | 82 | 1013.0 |
| 20260503081005 | 59 | 282 | 2.0 | 7.0 | 0.00 | 0.00 | 0.00 | 82 | 1013.7 |